GFSGL_sfc_30mbdewp_024.txt.gz
Dewpoint
31 37 39 39 40 36 35 40 44 44 41 39 38 37 35 35 36 36 36 35 33 33 33 33 33 33 31 31 32 31 31 32 32 34 36 37 36 35 35 35 36 37 38
33 36 38 39 41 38 34 35 37 42 42 39 38 37 35 34 35 35 34 33 33 33 32 32 31 31 30 31 31 30 31 33 34 35 35 35 36 36 35 36 38 37 37
32 34 38 40 42 40 35 35 35 38 40 39 38 36 35 34 34 33 33 31 31 32 33 32 31 30 30 30 30 31 34 36 36 35 35 35 36 36 35 37 37 37 37
32 34 39 41 42 41 40 34 35 35 38 38 37 36 35 34 33 32 31 30 30 30 31 30 30 30 28 27 30 33 35 35 36 35 36 36 35 37 36 37 37 39 40
29 33 38 42 42 40 41 38 34 35 35 37 36 36 35 33 32 31 30 30 28 28 28 29 29 28 30 31 35 37 37 37 36 36 36 36 34 34 34 35 37 39 39
28 28 35 41 42 41 42 43 38 35 35 35 35 35 34 32 33 34 30 29 28 26 26 26 27 32 30 33 36 38 38 37 36 36 36 34 34 35 36 37 39 40 38
28 28 32 39 40 39 41 43 43 41 35 34 33 33 33 32 36 37 34 29 28 27 28 28 27 29 35 33 33 33 35 35 35 36 36 36 35 37 39 39 40 41 43
29 29 31 38 37 37 37 41 43 44 36 35 32 31 31 31 39 39 36 30 29 28 28 28 31 31 33 33 33 34 35 36 36 37 36 37 38 39 41 43 43 44 44
29 30 37 37 35 36 35 39 41 44 42 34 31 30 31 30 40 40 34 30 30 29 31 32 32 33 34 34 34 35 36 37 38 36 37 38 39 40 43 44 43 42 41
29 37 37 37 36 36 34 33 40 43 44 35 31 30 31 35 41 40 33 30 29 31 32 32 35 33 34 35 36 37 37 38 36 36 37 39 40 42 43 44 44 42 42
30 36 36 36 36 36 33 29 40 43 44 37 30 30 32 36 40 41 36 31 31 31 30 30 33 36 36 37 37 39 40 39 37 37 38 38 41 41 43 43 44 45 45
31 34 36 36 36 35 28 30 39 43 44 40 29 29 30 36 40 42 38 32 32 29 29 31 37 38 37 38 40 40 39 37 37 37 35 38 40 40 41 43 44 47 49
29 32 36 37 36 33 27 30 36 42 43 40 28 28 30 36 40 43 41 37 33 30 34 40 40 40 39 38 41 38 37 36 36 36 36 40 40 40 42 43 46 48 52
30 33 37 38 36 31 34 33 40 41 42 39 28 28 31 36 39 41 39 38 36 35 36 37 37 37 38 38 38 40 36 35 36 36 37 41 39 41 41 43 45 47 52
31 35 38 36 32 36 35 39 41 43 42 37 28 28 32 34 37 38 38 37 36 36 36 36 37 37 36 36 36 35 34 34 36 35 38 40 39 40 41 43 45 49 50
33 37 37 36 34 36 38 38 43 43 43 39 30 28 31 32 39 39 38 36 37 38 36 35 35 35 35 33 33 33 33 34 34 34 40 39 39 40 41 42 44 48 50
37 39 37 36 36 37 39 39 40 41 43 34 33 32 33 37 38 41 41 40 39 37 35 35 34 35 34 33 33 32 33 34 33 34 40 39 39 40 41 41 43 44 50
39 38 37 38 37 38 40 40 40 38 37 37 38 38 39 39 40 40 40 39 37 36 35 35 34 33 33 33 32 33 33 34 34 35 40 39 39 40 40 41 42 43 48
39 38 38 37 37 38 40 39 37 36 35 36 38 39 40 40 40 40 39 36 35 35 35 33 33 32 33 33 33 33 35 37 37 37 40 40 39 40 40 40 41 42 45
38 37 36 36 39 39 38 37 36 37 37 36 37 38 39 39 38 36 33 33 33 36 34 33 32 31 32 33 34 34 36 36 36 36 39 40 40 40 40 40 41 41 43
37 37 37 39 39 38 38 37 37 36 37 37 37 38 37 35 35 34 33 33 32 32 32 32 32 31 33 34 34 34 35 35 36 37 39 40 39 39 40 40 40 41 42
37 36 37 37 38 38 37 37 37 36 36 36 37 37 36 34 33 33 32 31 31 32 32 31 31 30 33 32 32 35 35 36 36 36 37 39 38 39 39 39 40 40 41
37 36 37 38 38 37 36 35 35 35 36 35 35 34 32 32 32 31 32 31 31 31 31 31 30 30 31 31 32 36 36 37 37 38 39 38 38 38 39 39 39 40 40
37 36 36 36 36 36 37 37 37 35 35 35 34 33 32 31 31 31 32 32 32 32 32 32 32 33 30 31 35 39 39 38 39 40 40 39 39 39 39 39 39 40 40
38 38 37 36 36 35 35 34 33 32 31 31 30 31 31 31 32 34 35 34 34 33 32 34 33 33 33 36 39 38 38 38 38 39 40 40 39 39 38 39 39 40 40
36 35 34 34 33 33 32 31 31 30 30 30 30 30 30 31 33 33 33 34 34 34 32 33 35 36 34 38 37 38 39 39 40 40 40 40 39 38 39 39 39 39 40

GFSGL_sfc_30mbdewp_030.txt.gz
Dewpoint
27 28 30 31 32 34 35 36 42 41 41 40 39 37 41 42 39 39 39 39 38 37 36 35 33 33 33 33 33 32 31 30 27 29 31 33 34 35 36 36 37 37 37
28 30 30 30 32 33 32 36 42 41 41 41 41 40 40 42 40 38 38 38 37 36 35 35 33 33 33 33 33 32 31 32 30 28 31 34 35 36 36 36 36 36 36
29 29 28 29 31 30 31 38 40 41 41 42 41 41 42 43 41 38 39 38 37 35 35 34 34 33 33 33 33 32 32 32 32 31 31 36 36 37 36 36 36 37 37
27 26 28 28 29 30 33 37 40 40 41 41 41 41 43 44 43 42 39 38 37 35 34 34 34 33 33 32 32 32 31 31 33 34 35 36 36 36 36 36 36 36 36
26 28 27 28 29 32 35 36 37 41 42 42 42 44 44 45 44 41 40 39 36 35 35 35 35 34 36 34 32 31 31 32 34 35 35 36 36 36 36 36 35 35 37
26 26 28 28 29 31 30 33 41 42 41 42 42 43 44 44 45 46 41 37 36 35 34 34 34 38 38 38 37 35 34 34 35 36 36 36 36 36 37 36 36 36 35
26 27 28 29 29 29 32 40 39 39 39 39 40 43 43 43 46 47 46 38 36 34 34 34 32 36 39 38 38 38 40 42 41 38 36 36 36 36 36 36 36 37 37
26 27 28 29 28 32 32 34 37 37 37 38 39 42 41 42 44 47 45 41 35 33 33 33 32 34 38 35 33 35 36 35 35 36 36 37 38 38 37 38 39 40 41
27 27 27 28 29 30 30 34 37 37 36 38 39 40 40 40 43 45 46 43 35 32 31 31 30 32 37 37 32 32 33 34 38 39 40 41 40 39 40 39 39 40 40
28 26 27 29 30 30 30 34 35 34 35 37 37 39 40 40 45 44 48 39 32 30 30 31 33 30 37 39 32 33 33 35 36 38 40 38 38 38 39 39 40 40 40
31 28 29 31 31 31 32 31 31 33 35 37 37 37 39 42 45 45 47 37 33 29 29 33 35 37 40 40 37 35 35 37 40 40 36 36 37 36 38 40 41 41 40
27 31 30 31 31 30 29 29 31 34 37 36 36 37 40 43 45 44 44 38 33 29 30 35 37 41 40 39 40 39 40 40 37 35 35 34 34 37 39 39 40 44 46
28 27 29 31 30 29 28 29 33 37 35 35 37 38 40 44 43 47 46 41 35 30 33 36 40 42 40 39 41 40 39 36 34 35 33 33 36 38 39 41 44 46 48
28 28 29 28 29 29 32 33 35 36 35 36 39 39 41 41 44 47 46 38 36 34 37 39 41 42 40 40 40 39 37 36 36 33 32 34 38 38 40 42 43 45 49
32 29 29 28 27 32 33 33 36 37 36 37 41 40 40 41 45 43 39 37 36 40 41 41 40 39 38 37 37 36 35 35 32 32 33 38 37 39 40 43 43 45 47
35 31 27 28 31 32 33 36 37 37 38 39 44 43 42 44 42 40 40 40 43 41 38 37 37 36 35 35 33 33 33 32 32 33 37 37 37 39 41 42 43 44 48
33 31 31 32 33 34 35 36 35 36 37 44 45 44 43 45 43 42 42 43 41 37 36 36 35 35 34 34 32 32 31 32 34 36 38 37 38 39 40 41 42 43 49
34 33 34 35 35 36 37 36 36 36 37 43 45 43 44 45 42 42 41 39 37 36 36 36 35 35 34 32 33 32 32 35 36 39 38 37 38 39 39 40 41 42 46
36 36 36 36 36 36 37 36 36 37 41 41 42 43 44 44 42 42 39 36 35 35 36 35 35 34 33 33 33 34 36 37 38 38 37 36 37 39 39 40 41 42 44
36 37 37 37 37 36 36 36 37 40 40 39 41 42 43 42 39 37 36 36 36 36 35 35 34 34 33 33 34 35 35 36 36 37 37 36 36 38 38 39 40 41 42
36 36 39 39 39 38 39 39 40 40 39 40 41 41 40 36 36 36 36 36 36 35 34 34 34 34 34 34 34 35 36 36 35 36 37 35 35 36 38 39 40 41 42
35 38 37 38 38 38 38 38 38 38 38 38 38 37 35 34 34 35 35 36 35 34 34 33 34 34 34 34 35 35 36 36 36 36 35 35 35 36 36 38 39 40 41
35 36 37 37 37 37 37 37 37 37 37 36 35 34 34 34 34 33 34 35 34 33 33 33 34 33 34 36 36 36 37 36 37 37 36 35 35 35 36 38 39 39 40
35 35 35 37 37 36 36 37 37 36 35 35 35 34 34 34 33 33 33 33 33 33 33 32 32 33 36 38 38 38 39 38 38 38 38 36 33 34 36 38 39 39 39
35 35 34 35 35 35 35 36 36 36 36 35 34 34 34 34 33 33 33 32 33 33 33 33 34 37 38 38 38 39 39 39 39 39 38 38 34 34 38 39 39 39 39
35 34 34 34 34 34 34 35 35 35 35 34 34 35 35 34 34 34 34 33 33 33 34 34 37 38 38 38 38 38 39 38 37 39 39 39 38 38 38 38 38 38 38

GFSGL_sfc_30mbdewp_033.txt.gz
Dewpoint
26 27 28 29 29 29 30 31 32 33 40 41 41 41 40 40 42 42 42 41 40 39 39 38 36 35 35 34 33 31 30 28 25 27 29 31 32 32 33 37 38 37 37
27 28 28 28 28 29 29 30 31 32 39 41 41 41 40 41 41 41 42 40 40 40 39 38 37 35 34 34 34 32 31 30 28 26 29 31 33 34 35 36 36 37 36
27 28 27 28 27 29 30 30 31 34 38 39 40 41 41 41 41 41 42 42 41 41 40 38 37 35 34 34 33 32 32 32 31 30 29 33 34 36 36 36 36 36 36
27 27 26 27 28 29 29 30 31 36 36 38 40 41 41 41 41 42 42 42 42 41 41 40 37 35 34 33 33 32 32 31 32 31 31 32 35 36 36 35 36 37 36
27 25 26 27 28 29 31 31 33 32 33 38 42 42 42 42 42 42 42 42 43 43 44 43 37 36 36 34 33 33 32 31 32 32 32 34 35 35 35 36 36 36 37
27 26 27 27 28 30 30 32 32 33 41 41 41 40 40 40 40 42 43 42 44 44 43 42 36 38 39 39 37 36 33 31 31 32 33 33 34 35 36 36 36 36 35
31 27 27 26 27 29 30 31 32 37 35 37 39 38 37 37 40 42 43 42 42 46 43 41 35 36 40 40 40 40 39 37 34 33 33 35 36 36 36 36 36 36 36
30 30 28 27 27 28 30 30 33 33 34 36 38 38 37 38 39 41 42 42 43 47 41 38 35 35 40 40 40 39 39 40 40 41 38 38 37 37 37 38 38 38 39
28 29 29 29 28 28 29 30 32 32 35 37 37 36 37 38 39 39 41 42 45 45 39 36 35 36 41 41 38 37 37 37 39 39 40 40 41 42 41 39 38 37 36
25 26 28 27 29 30 28 31 31 33 35 35 32 34 36 38 39 40 41 42 45 43 41 39 38 35 41 41 35 34 33 34 35 36 37 40 41 37 39 39 37 37 37
27 27 28 30 30 28 31 31 32 31 29 29 32 35 38 38 38 40 41 44 43 40 38 36 36 38 43 40 34 32 32 35 37 38 39 36 36 36 35 37 38 39 39
34 32 30 29 31 29 29 31 29 29 29 31 34 37 37 37 40 42 43 47 42 38 35 34 37 42 43 40 36 38 39 40 39 36 34 34 33 34 36 38 39 41 42
36 36 35 31 29 29 30 29 28 29 31 33 35 36 36 39 42 42 45 46 41 36 35 36 42 44 44 42 40 40 41 37 34 34 32 31 33 36 38 39 42 45 47
35 36 35 32 30 29 29 29 29 33 33 33 36 35 36 41 41 44 46 45 43 38 38 42 43 42 41 41 41 40 37 35 35 32 31 33 36 37 39 41 43 45 48
34 34 32 32 33 30 28 27 32 33 34 37 37 37 38 40 42 46 46 44 40 39 41 42 40 40 39 38 37 35 35 35 32 32 33 36 36 38 40 43 44 45 47
34 32 33 34 30 30 31 33 34 35 39 38 37 38 41 43 43 45 43 42 40 41 39 39 38 37 36 36 34 34 33 32 32 34 37 35 37 39 40 42 44 46 47
34 34 31 33 33 33 33 34 34 37 37 37 40 45 43 43 47 44 43 43 41 38 37 37 36 35 35 34 33 32 31 33 35 38 36 35 37 39 40 41 43 45 47
36 37 36 36 35 35 35 35 37 35 35 36 44 43 44 46 45 45 43 39 37 36 36 36 35 35 34 33 32 31 34 36 37 37 35 35 37 39 39 40 41 43 47
36 36 36 36 36 36 37 37 36 36 36 40 41 43 46 45 45 42 38 35 35 36 36 35 35 34 33 33 33 35 36 37 37 35 35 35 37 38 39 40 41 43 47
35 37 38 39 39 38 36 35 35 36 39 39 40 41 44 43 39 36 36 36 36 36 36 35 34 34 33 34 35 36 35 35 36 35 34 35 36 37 39 40 41 42 45
35 38 38 38 38 39 40 38 39 39 39 41 42 42 40 37 36 36 36 36 36 36 35 34 34 34 34 35 35 36 35 35 36 35 34 34 35 36 38 40 40 42 44
36 37 37 36 37 37 38 39 39 38 38 38 38 39 38 36 36 36 36 36 36 35 35 34 34 35 35 35 36 36 35 35 35 35 34 34 35 36 38 39 40 40 42
35 35 36 36 36 37 37 37 37 37 36 36 36 35 34 35 35 35 35 35 35 34 35 35 34 34 36 36 37 37 36 36 36 36 34 33 33 36 38 39 39 39 40
35 34 34 35 36 36 36 36 36 36 36 35 34 34 34 34 35 35 34 34 33 34 34 34 36 38 38 38 38 38 38 37 37 37 36 34 33 37 38 39 39 39 39
35 34 33 33 33 34 35 36 36 35 35 35 34 33 34 34 34 33 33 33 33 33 34 36 37 37 38 38 38 38 38 38 38 38 38 37 36 37 38 38 38 38 39
34 34 34 34 33 34 33 33 34 35 35 35 35 35 35 35 35 33 33 33 33 34 36 37 37 38 38 38 38 38 37 36 37 39 38 36 35 37 38 38 38 37 38

GFSGL_sfc_30mbdewp_036.txt.gz
Dewpoint
28 28 28 27 28 29 29 29 31 32 34 35 38 41 40 41 40 40 41 41 41 42 41 40 39 38 36 35 33 31 28 26 25 26 27 29 31 31 33 36 38 39 40
28 28 27 28 28 28 28 28 30 30 32 33 38 40 40 41 41 40 40 40 40 41 41 40 40 39 37 36 35 32 30 29 27 26 27 29 29 32 32 32 34 36 37
29 28 28 28 28 28 27 28 29 30 30 34 37 37 39 41 41 41 41 41 41 41 41 41 40 40 40 37 35 34 32 31 29 28 27 31 32 34 33 35 36 36 37
29 28 29 29 29 27 28 28 29 30 31 33 34 36 39 41 42 41 41 41 41 41 42 42 42 40 40 39 35 35 33 32 31 30 29 30 32 34 35 34 35 36 36
30 31 32 31 29 28 29 29 30 30 31 32 32 37 41 41 41 40 41 41 41 42 43 43 42 43 43 40 37 35 33 32 31 31 30 32 33 34 33 35 35 36 36
29 29 30 32 31 29 29 30 30 31 32 32 37 38 37 40 39 38 36 37 40 42 42 43 44 44 44 47 46 40 34 32 31 31 32 31 32 33 35 35 35 35 34
26 26 27 28 29 30 30 28 29 31 32 34 37 35 36 38 39 37 35 37 38 38 40 41 42 44 45 45 46 44 39 37 33 32 31 31 31 33 35 35 36 35 35
27 26 26 26 27 29 29 29 30 31 33 34 34 34 36 38 37 34 35 38 37 39 40 41 41 44 41 44 44 41 40 39 38 35 32 32 33 36 37 36 36 37 38
28 28 28 28 27 27 28 30 30 31 32 33 34 35 37 36 35 33 36 38 38 40 42 41 43 44 41 44 43 40 39 39 41 41 37 39 41 41 39 39 39 38 37
30 32 33 33 32 30 29 31 34 31 32 33 35 35 34 31 32 34 37 38 39 40 41 41 43 42 42 45 43 39 38 37 40 40 40 41 41 41 42 40 38 36 35
36 37 36 37 35 35 33 31 30 34 31 32 30 30 31 33 35 38 39 39 40 41 40 42 41 43 45 46 43 38 37 36 38 35 36 38 37 35 35 35 35 36 36
37 37 36 37 36 35 33 30 29 30 30 29 30 31 33 35 37 38 39 41 43 43 41 42 42 46 45 44 40 39 39 38 38 38 36 34 33 31 33 35 37 39 40
37 36 35 35 36 33 33 31 30 29 29 30 31 33 33 35 37 38 42 43 43 44 42 41 42 44 43 42 39 40 41 38 36 34 33 31 31 34 35 37 40 43 45
36 35 33 32 33 32 31 30 30 29 29 30 32 32 35 37 37 40 42 43 45 42 42 42 43 43 40 41 42 40 37 35 34 32 31 33 35 36 37 40 42 44 46
36 35 35 32 32 33 34 32 30 28 30 32 33 35 38 37 38 41 42 41 41 42 43 44 42 40 39 38 36 36 37 34 31 32 34 35 36 37 40 43 43 45 46
34 35 34 35 33 35 33 32 34 34 35 36 38 38 37 39 41 43 44 42 44 44 40 39 39 38 36 34 34 33 33 33 33 36 35 35 37 39 40 42 44 46 45
34 35 36 36 36 35 34 34 34 33 35 37 36 38 41 44 43 44 44 44 43 41 38 38 37 36 34 34 32 31 32 35 36 35 34 36 38 39 40 41 44 45 44
35 36 36 36 36 36 36 35 35 35 35 35 38 44 44 44 44 43 43 42 39 38 37 36 35 34 33 32 32 34 36 37 34 34 34 37 38 39 40 40 43 46 46
35 35 38 38 39 38 37 36 36 36 36 36 41 44 44 44 44 42 38 36 36 36 35 35 34 34 33 34 36 36 36 35 34 34 35 36 38 38 39 41 43 46 46
36 37 38 37 37 38 38 36 35 35 36 39 41 42 41 38 37 36 36 36 36 36 36 34 34 34 35 36 36 35 35 34 33 33 34 36 37 39 39 40 43 46 46
35 35 37 36 36 38 40 38 39 39 39 40 40 39 38 36 36 36 36 37 37 36 35 35 35 35 36 36 35 35 35 34 33 33 34 35 37 38 40 41 42 45 46
35 35 36 35 36 37 38 38 38 38 38 38 38 38 37 36 36 36 36 36 36 35 35 34 35 36 36 36 36 35 34 34 33 32 33 35 37 39 40 40 41 42 45
35 34 34 34 36 36 35 36 37 37 36 36 36 36 36 36 36 36 35 36 35 35 35 35 35 36 37 37 37 36 35 35 35 34 33 35 38 39 39 40 40 41 42
35 34 33 34 34 35 36 36 36 36 36 35 35 35 35 36 36 34 35 35 34 35 36 37 37 38 38 38 38 37 37 36 36 36 34 34 38 39 39 39 39 40 41
34 34 33 33 33 33 34 35 36 36 36 35 35 35 36 36 35 34 34 34 35 36 37 37 37 38 38 38 38 38 38 38 36 36 35 37 37 38 38 38 38 39 40
33 33 33 33 33 33 33 33 33 35 35 36 36 36 36 36 35 34 34 34 35 36 37 38 38 38 38 37 36 36 36 36 37 36 36 36 36 37 37 36 37 37 38